Regional Weather Roundup
Issued by NWS

Home | Current Version | Previous Version | Graphics & Text | Print | Product List | Glossary On
Versions: 1 2 3 4 5 6 7 8 9 10 11 12 13 14 15 16 17 18 19 20 21 22 23 24 25 26 27 28 29 30 31 32 33 34 35 36 37 38 39 40 41 42 43 44 45 46 47 48 49 50
000
ASUS45 KBOU 260207
RWRCO

WEATHER ROUNDUP FOR COLORADO
NATIONAL WEATHER SERVICE DENVER/BOULDER CO
800 PM MDT THU MAY 25 2017

NOTE: "FAIR" INDICATES FEW OR NO CLOUDS BELOW 12000 FEET WITH NO
SIGNIFICANT WEATHER AND/OR OBSTRUCTIONS TO VISIBILITY.

COZ001>005-013-030-031-260300-
...NORTHWEST COLORADO...

CITY           SKY/WX    TMP DP  RH WIND       PRES   REMARKS
CRAIG          CLOUDY    54  46  74 E6        29.82R
HAYDEN         MOCLDY    52  41  66 E7        29.83R
MEEKER         LGT RAIN  56  43  61 N20       29.81R
RABBIT EARS PA FOG       34  34 100 NW7       29.97S VSB 1/4 WCI  28
STEAMBOAT SPGS FAIR      48  42  79 NW3       29.84R
WALDEN           N/A     43  37  81 NW5       29.91R
$$

COZ006>008-011-260300-
...WEST CENTRAL VALLEYS...

CITY           SKY/WX    TMP DP  RH WIND       PRES   REMARKS
GRAND JUNCTION FAIR      72  30  21 SW24G36   29.68R
MONTROSE       FAIR      69  31  24 VRB7      29.76R
EAGLE          FAIR      59  35  40 NW13      29.81R
RIFLE          MOCLDY    66  35  31 S8        29.71R
DELTA          FAIR      73  26  17 S5        29.71R
NUCLA          MOCLDY    70  25  18 CALM      29.79R
$$

COZ017>023-064>068-260300-
...SOUTHWEST COLORADO...

CITY           SKY/WX    TMP DP  RH WIND       PRES   REMARKS
DURANGO        FAIR      67  21  17 SW15      29.80R
CORTEZ         LGT RAIN  69  28  21 NW10G55   29.77R
PAGOSA SPRINGS FAIR      66  18  15 SW13G18   29.87R
TELLURIDE      FAIR      55  26  31 CALM      29.97R
WOLF CREEK PAS FAIR      39  23  52 S9        30.15R
$$

COZ009-010-012-014-032>034-037-058>063-260300-
...CENTRAL COLORADO...

CITY           SKY/WX    TMP DP  RH WIND       PRES   REMARKS
ASPEN          CLOUDY    54  34  46 S15       29.88R
BUENA VISTA    FAIR      56  29  36 NW12      29.87R
COPPER MTN     MOCLDY    37  27  65 SW12G22   30.08R
BERTHOUD PASS  FAIR      32  21  64 W32G46    30.07S WCI  17
COTTONWOOD PAS FAIR      50  30  46 NW6       29.96R
GUNNISON       FAIR      54  35  48 N15G21    29.90R
KREMMLING      MOCLDY    50  45  81 E6        29.88F
LEADVILLE      CLOUDY    44  31  60 N8        29.97R
MONARCH PASS   CLOUDY    41  23  48 SW28G41   30.17R
SALIDA         FAIR      63  24  23 W7        29.91R
SUNLIGHT       FAIR      39  28  65 SW7       30.03R
WILKERSON PASS MOCLDY    43  25  49 W10       30.08R
$$

COZ069>075-260300-
...SAN LUIS VALLEY/SANGRE DE CRISTO MOUNTAINS...

CITY           SKY/WX    TMP DP  RH WIND       PRES   REMARKS
ALAMOSA        FAIR      62  26  25 SW17      29.85R
DEL NORTE      FAIR      60  25  25 W14       29.86R
LA VETA PASS   FAIR      48  19  32 MISG      30.11R
SAGUACHE       FAIR      59  25  27 NW10      29.87R
$$

COZ035-036-038>040-260300-
...NORTHERN COLORADO FRONT RANGE...

CITY           SKY/WX    TMP DP  RH WIND       PRES   REMARKS
DENVER INTL AP MOCLDY    55  43  63 N23G30    29.76R
DMNS CITY PARK   N/A     56  47  73 NE7G13    29.77R
AURORA         MOCLDY    57  43  59 N16       29.79R THUNDER
FRONT RANGE AP NOT AVBL
ERIE MUNI ARPT LGT RAIN  55  48  79 NE7G18    29.77R
BOULDER MUN AP FAIR      55  46  71 E5        29.76R
CENTENNIAL     TSTM      59  46  62 N18G29    29.81R
BROOMFIELD     MOCLDY    55  46  71 NE8       29.79R
FORT COLLINS   LGT RAIN  53  46  77 NE7       29.77R
LONGMONT       FAIR      55  48  75 N8        29.78R
$$

COZ041-046-047-076>085-087-088-260300-
...PIKES PEAK/PALMER DIVIDE AND SOUTHERN FOOTHILLS...

CITY           SKY/WX    TMP DP  RH WIND       PRES   REMARKS
COLO. SPRINGS  FAIR      61  44  53 NE15      29.75R
A. F. ACADEMY  FAIR      58  44  61 N12       29.77R
SCHRIEVER AFB  FAIR      59  43  55 N10G28    29.74R
CHEYENNE MTN   FAIR      60  38  43 NW15      29.73R
ELLICOTT       FAIR     N/A N/A N/A E17G25    29.73R
FALCON         FAIR      55  42  60 NE9       29.80R
FORT CARSON    FAIR      62  46  56 NE16      29.71R
LIMON          FAIR      54  48  80 NW6       29.72R
MONUMENT HILL  FAIR      52  43  71 NE9       29.85R
CANON CITY     NOT AVBL
WALSENBURG     FAIR      72  23  16 W12G23    29.72R
TRINIDAD       FAIR      74  16  11 W13G29    29.69R
$$

COZ042>045-048>051-090-091-260300-
...NORTHEAST COLORADO...

CITY           SKY/WX    TMP DP  RH WIND       PRES   REMARKS
GREELEY ARPT   FAIR      54  44  69 N12       29.77R
AKRON          FAIR      58  51  78 N14       29.69R
BURLINGTON     FAIR      58  50  75 NE14      29.63F
WRAY           FAIR      59  50  72 N7        29.61S
YUMA           FAIR      57  50  77 N12       29.65R
STERLING       MOCLDY    59  50  72 NW24G37   29.75R
HOLYOKE        NOT AVBL
FORT MORGAN    MOCLDY    51  47  86 N10       29.76R
$$

COZ086-089-092>099-260300-
...SOUTHEAST COLORADO...

CITY           SKY/WX    TMP DP  RH WIND       PRES   REMARKS
PUEBLO         FAIR      69  46  43 NE18G24   29.65R
LA JUNTA       FAIR      68  46  45 NE28G37   29.61R
LAMAR          FAIR      68  46  45 NE25G38   29.59R
SPRINGFIELD      N/A     73  37  27 SW9       29.57R
$$



USA.gov is the U.S. government's official web portal to all federal, state and local government web resources and services.